カタリナ彗星

C/2009 O2 ( Catalina )

English version
Home page
Updated on May 5, 2010

---------------------------------------------------------------------

・ プロフィール

発見日 2009年7月27日
発見光度 19.5等
発見者 Catalina Sky Survey

・ 写真集

・ 軌道要素

Epoch 2010 Mar. 25.0 TT = JDT 2455280.5
T 2010 Mar. 24.41719 TT                                 MPC
q   0.6954541            (2000.0)            P               Q
z  +0.0036565      Peri.  133.40462     -0.61480745     -0.30750035
 +/-0.0000034      Node   310.23075     +0.07366881     +0.89444295
e   0.9974571      Incl.  107.95683     +0.78522908     -0.32467729

・ 星図

・ 光度変化

        m1 = 12.5 + 5 logΔ +  8.0 log r(t + 40)  [  ,18]  (              〜2010年 4月11日)
        m1 = 15.5 + 5 logΔ + 20   log r          [18,  ]  (2010年 4月11日〜              )

        ※ 灰色の曲線は、m1 = 10.0 + 5 logΔ + 11.5 log r の光度曲線です。

---------------------------------------------------------------------

軌道要素はM.P.E.C. 2010-G63に掲載されたものです。
星図はステラナビゲータ Ver.8 (アストロアーツ) で作成したものです。
光度グラフはComet for Windowsで作成したものです。

---------------------------------------------------------------------

Copyright(C) Seiichi Yoshida (comet@aerith.net). All rights reserved.